Tracking 33208 objects as of 15-Feb-2026
HD Live streaming from Space Station
objects crossing your sky now

STARLINK-5671

Track STARLINK-5671 now!
10-day predictions
STARLINK-5671 is classified as:


NORAD ID: 55339
Int'l Code: 2023-013J
Perigee: 565.3 km
Apogee: 567.1 km
Inclination: 43.0 °
Period: 95.8 minutes
Semi major axis: 6937 km
RCS: Unknown
Launch date: January 26, 2023
Source: United States (US)
Launch site: AIR FORCE EASTERN TEST RANGE (AFETR)
Your satellite tracking list
Your tracking list is empty




NASA's NSSDC Master Catalog

Two Line Element Set (TLE):
1 55339U 23013J   26046.06361066  .00000444  00000-0  47929-4 0  9997
2 55339  43.0044  63.4673 0001284 271.0745  88.9950 15.02532701168305
Source of the keplerian elements: AFSPC